Вернуться в каталог

CZ-6A R/B

АктивенSSO
NORAD 60214·ROCKET BODY·🇨🇳 China

Запущен Jul 4, 2024 с Taiyuan Satellite Launch Center

Loading…

Ближайшие Пролёты (ближайшие 24 часа)

TLE

СвежийSource: Space-Track

Эпоха: Sep 14, 2026, 13:26 UTC

1 60214U 24126D   26257.56032952  .00002936  00000-0  15402-3 0  9997
2 60214  97.7704 290.4403 0067017 171.1536 189.0894 15.14663487120968

Отслеживайте CZ-6A R/B в реальном времени с AllMySat

Download on the App Store